マクノート彗星

C/2006 Q1 ( McNaught )

English version
Home page
Updated on July 21, 2011

---------------------------------------------------------------------

・ プロフィール

発見日 2006年8月20日
発見光度 17.8等
発見者 R. H. McNaught (Siding Spring Survey)

・ 写真集

・ 軌道要素

The following orbital elements are taken from MPC 72849:

Epoch 2008 June 23.0 TT = JDT 2454640.5
T 2008 July 3.8554 TT                                   MPC
q   2.763665             (2000.0)            P               Q
z  +0.000068       Peri.  344.3796      -0.9539012      -0.0880220
 +/-0.000000       Node   199.5463      -0.0840291      -0.8394568
e   0.999812       Incl.   59.0471      -0.2881174      +0.5362503
From 2552 observations 2006 Aug. 20-2010 Oct. 17, mean residual 0".5.

・ 星図

・ 光度変化

        m1 = 4.8 + 5 logΔ + 10.0 log r  [ ,0]  (              〜2008年 7月 3日)
        m1 = 4.3 + 5 logΔ + 11.0 log r  [0, ]  (2008年 7月 3日〜              )

---------------------------------------------------------------------

軌道要素はMPCのEphemerides and Orbital Elementsに掲載されたものです。
星図は StellaNavigator Ver.2.0 for Windows (アストロアーツ 編著 / アスキー出版局刊) で作成したものです。
光度グラフはComet for Windowsで作成したものです。

---------------------------------------------------------------------

Copyright(C) Seiichi Yoshida (comet@aerith.net). All rights reserved.